Home   Weather   Siafa Washington Town   Past weeks
Flag for Liberia

Past Weather in Siafa Washington Town, Liberia — Yesterday and Last 2 Weeks

Now
93 °F

Partly sunny.


Feels Like: 110 °F
Forecast: N/A
Wind: 14 mph from Southwest

Location: Roberts Field

Current Time: Mar 21, 2019 at 2:45:21 pm

Latest Report: Mar 21, 2019 at 2:00 pm


Visibility: N/A

Pressure: 29.80 "Hg

Humidity: 63%

Dew Point: 79 °F

Location of Siafa Washington TownLocation

Past Weather in Siafa Washington Town — Graph

°F

Siafa Washington Town Temperature Yesterday

Maximum temperature yesterday: 93 °F (at 2:00 pm)
Minimum temperature yesterday: 75 °F (at 1:00 am)
Average temperature yesterday: 83 °F

High & Low Weather Summary for the Past Weeks

 TemperatureHumidityPressure
High95 °F (Mar 16, 1:00 pm)100% (Mar 13, 1:00 am)29.95 "Hg (Mar 13, 1:00 am)
Low73 °F (Mar 7, 11:00 pm)47% (Mar 8, 1:00 pm)29.74 "Hg (Mar 13, 5:00 pm)
Average83 °F80%29.84 "Hg
* Reported Mar 6 1:00 pm — Mar 21 1:00 pm, Siafa Washington Town. Weather by CustomWeather, © 2019

Note: Actual official high and low records may vary slightly from our data, if they occured in-between our weather recording intervals... More about our weather records

Advertising

Siafa Washington Town Weather History for the Previous 24 Hours

Scroll right to see more
 ConditionsComfort  
Time TempWeatherWind HumidityBarometerVisibility
1:00 pm
Thu, Mar 21
93 °FPartly sunny.5 mph63%29.83 "HgN/A
12:00 pm90 °FPartly sunny.10 mph63%29.86 "HgN/A
11:00 am88 °FPartly sunny.5 mph66%29.89 "HgN/A
10:00 am86 °FPartly sunny.No wind70%29.89 "HgN/A
9:00 am81 °FPartly sunny.6 mph84%29.86 "HgN/A
8:00 am75 °FBroken clouds.3 mph94%29.83 "Hg6 mi
7:00 am75 °FPassing clouds.3 mph94%29.77 "Hg6 mi
6:00 am77 °FThunderstorms. Passing clouds.No wind94%29.77 "HgN/A
3:00 am77 °FThunderstorms. Passing clouds.No wind83%29.80 "HgN/A
2:00 am79 °FPassing clouds.No wind84%29.83 "HgN/A
1:00 am79 °FThunderstorms. Passing clouds.5 mph79%29.86 "HgN/A
12:00 am81 °FThunderstorms. Passing clouds.No wind94%29.86 "HgN/A
11:00 pm
Wed, Mar 20
81 °FThunderstorms. Passing clouds.No wind89%29.86 "HgN/A
10:00 pm81 °FThunderstorms. Passing clouds.3 mph89%29.83 "HgN/A
9:00 pm81 °FPassing clouds.3 mph89%29.83 "HgN/A
8:00 pm81 °FPassing clouds.No wind84%29.80 "HgN/A
7:00 pm82 °FScattered clouds.6 mph84%29.80 "HgN/A
6:00 pm86 °FPassing clouds.9 mph75%29.77 "HgN/A
5:00 pm88 °FPassing clouds.12 mph66%29.74 "HgN/A
4:00 pm90 °FPassing clouds.12 mph63%29.74 "HgN/A
3:00 pm91 °FPassing clouds.13 mph63%29.77 "HgN/A
2:00 pm93 °FScattered clouds.15 mph53%29.80 "HgN/A
Weather by CustomWeather, © 2019

See weather overview